RH
31 28 23 27 29 29 34 35 32 31 25 27 24 27 25 21 33 47 61 52 52 50 46 46 48 51 44 43 50 61 41 47 15 15 22 30 51 59 63 64 68 54 33 29 26 24 23 20 13
35 32 26 25 29 31 38 39 35 35 35 31 27 34 36 34 33 42 58 60 42 40 47 49 52 47 40 32 44 48 20 14 13 20 27 49 59 65 67 66 77 66 51 33 30 28 25 21 16
38 36 24 22 23 30 35 38 29 26 32 34 29 35 46 48 42 45 49 54 50 53 55 52 42 37 26 30 44 44 29 26 24 32 51 59 65 67 67 61 72 69 45 37 34 31 28 23 19
39 36 25 20 27 28 36 36 31 28 21 27 29 28 30 51 50 44 55 55 44 34 36 36 37 32 29 33 43 36 36 42 45 53 60 63 66 67 65 61 55 64 38 32 28 24 21 17 13
40 37 28 19 28 31 36 35 28 24 16 19 27 30 38 43 40 36 40 40 47 49 37 34 35 31 30 39 43 40 48 56 65 65 66 69 66 65 62 60 59 35 27 25 20 18 17 15 18
39 37 26 22 27 31 37 34 25 23 22 20 20 25 28 38 41 41 38 35 33 36 30 35 34 31 30 30 34 46 56 61 66 70 73 71 66 54 53 45 33 28 27 24 21 20 19 20 22
40 35 29 24 29 31 38 28 26 23 24 18 18 16 24 35 30 30 32 33 32 31 30 33 36 40 42 49 50 48 47 51 55 60 56 57 53 30 33 29 23 23 27 32 34 32 30 29 27
37 30 23 26 28 35 36 31 24 19 21 18 18 20 23 23 29 38 38 37 35 30 31 29 29 35 47 45 39 41 32 27 28 36 47 43 23 24 29 31 34 32 31 31 31 31 31 32 31
39 30 25 29 25 38 34 26 20 17 17 18 20 22 22 20 27 35 42 48 39 32 32 31 28 26 26 23 24 28 18 15 16 21 22 21 23 34 34 32 30 32 34 35 36 36 35 33 29
35 30 29 29 26 32 32 18 20 16 16 18 20 23 22 19 28 32 42 48 33 30 29 30 30 26 23 22 27 22 17 15 16 16 18 25 35 33 32 33 36 36 35 34 32 29 29 28 25
36 32 32 30 27 24 32 22 20 21 18 19 22 24 24 22 30 40 44 40 34 28 28 27 25 25 23 25 26 19 15 16 21 30 38 37 36 35 40 43 43 41 38 33 29 28 31 34 33
25 29 30 32 34 21 23 28 23 26 25 26 26 28 28 26 29 36 38 36 32 28 28 28 26 23 20 23 21 19 15 20 32 36 38 40 39 42 46 48 47 45 43 38 38 44 46 40 37
30 29 27 26 26 21 20 19 25 26 31 28 28 28 31 25 27 34 32 36 34 30 30 33 28 25 22 21 19 18 17 27 34 37 43 42 44 49 52 52 52 51 53 57 58 54 51 49 46
32 27 26 26 24 21 20 22 19 23 29 31 30 28 24 22 24 31 37 37 32 29 30 31 31 30 26 23 22 22 28 33 34 41 49 47 49 54 59 58 57 64 67 78 74 69 63 56 44
37 32 31 29 27 23 26 19 19 30 24 22 25 28 27 25 23 29 38 38 37 34 31 29 30 33 32 28 27 31 34 36 40 50 54 51 53 60 63 66 69 75 66 69 74 70 62 52 35
39 37 34 35 37 31 30 15 24 30 26 22 23 23 23 24 25 30 33 35 41 42 40 38 34 31 34 36 37 37 37 38 45 54 57 59 62 67 72 79 85 85 88 80 77 63 44 37 24
36 32 39 46 47 44 32 21 25 25 24 24 22 22 25 25 26 30 34 39 43 41 45 46 45 37 36 38 38 38 40 46 56 62 67 69 72 76 90 98 98 95 95 93 83 62 56 32 19
44 38 33 36 53 45 39 29 29 30 25 23 25 24 26 29 35 40 43 42 40 47 49 48 51 53 46 45 50 55 59 64 70 74 76 80 85 90 97 98 99 96 88 71 63 58 50 42 36
38 37 34 40 58 55 44 29 33 33 29 26 27 28 29 32 40 42 48 52 51 49 54 63 60 59 63 73 68 68 70 70 71 76 82 88 98 93 85 95 96 80 80 71 62 50 39 35 30
42 39 35 42 55 64 45 19 25 30 31 30 30 29 31 35 41 46 57 64 68 75 83 77 80 84 81 82 72 68 74 74 80 89 97 98 93 86 98 94 90 75 60 54 50 43 39 35 30
42 38 40 46 62 65 50 13 25 26 27 31 29 29 30 31 37 45 61 71 75 93 81 96 94 92 95 94 95 95 96 95 96 97 91 97 96 97 95 90 88 84 60 54 45 38 34 33 29
37 54 50 49 57 46 62 19 16 22 30 36 34 31 30 36 41 42 52 65 74 77 94 98 93 88 97 99 95 93 92 97 100 97 93 99 98 97 86 80 80 69 56 48 44 38 35 34 33
44 60 64 54 46 50 36 44 14 23 24 32 40 46 46 49 44 40 44 54 74 95 100 100 100 83 77 98 97 98 98 98 96 97 98 99 99 88 91 96 87 78 59 47 40 37 36 35 36
60 66 75 70 58 57 32 56 18 23 23 22 35 40 48 48 42 38 42 48 58 77 100 94 99 92 59 96 97 98 97 96 96 99 96 96 95 96 100 97 92 76 58 54 43 37 31 37 40
74 76 77 69 60 46 49 66 27 26 24 26 29 33 39 47 45 43 44 56 62 72 89 100 96 98 95 81 98 94 100 89 92 98 97 97 97 100 100 100 99 82 68 57 46 36 47 45 36
84 100 93 91 84 60 67 55 36 30 30 29 31 29 32 33 33 42 48 48 54 66 79 80 86 73 85 100 91 93 98 79 93 98 95 99 97 98 98 96 95 82 69 54 50 51 48 40 38
73 87 61 100 97 98 66 50 42 31 32 36 37 34 34 34 37 40 50 45 39 38 48 51 59 66 87 100 98 90 73 98 99 100 100 99 99 98 97 86 87 84 71 58 60 54 51 50 45
80 79 80 85 95 97 68 58 50 45 46 46 44 42 37 36 38 40 49 57 67 59 52 39 41 58 76 96 100 91 98 98 99 100 99 98 98 86 73 72 77 82 75 79 56 56 65 66 61
91 90 85 82 97 92 91 78 58 62 60 48 41 45 50 56 52 49 58 71 70 63 61 62 59 50 68 99 100 100 99 98 100 98 99 97 95 75 69 73 83 71 75 60 45 59 90 94 64
82 93 100 98 82 83 88 95 80 69 69 57 64 63 69 68 57 56 66 79 74 67 62 82 78 83 94 100 100 97 100 100 99 96 98 92 75 69 70 69 60 53 56 59 64 81 92 90 74
Wind_Speed
31 28 25 28 29 26 22 24 34 30 28 28 28 24 23 28 30 27 24 22 21 22 25 27 29 31 30 29 29 26 25 24 24 23 23 22 22 24 26 27 27 26 24 20 20 20 20 21 21
33 30 27 29 28 28 24 26 35 31 29 29 28 29 27 28 29 30 28 25 24 24 27 30 33 34 33 31 27 24 19 19 22 23 22 20 23 26 28 28 28 28 25 22 21 21 20 21 20
33 30 27 28 24 26 25 27 39 31 28 28 29 30 28 28 30 32 31 29 28 29 30 31 33 33 31 30 26 22 19 20 23 20 20 22 25 29 31 32 30 30 27 24 23 23 21 21 20
33 30 29 26 24 23 26 29 36 36 28 27 26 28 28 28 30 31 29 28 28 27 26 28 27 28 28 26 22 22 20 19 19 21 23 25 29 32 33 32 31 29 27 26 25 24 23 21 20
34 31 31 25 22 25 30 29 35 37 26 22 24 23 25 28 30 32 25 24 23 25 22 22 23 24 25 24 24 21 21 21 22 24 26 29 32 34 32 28 26 24 26 26 25 22 21 20 19
32 32 28 23 22 26 28 31 36 36 30 23 18 19 22 26 31 24 22 23 25 25 21 20 21 22 23 26 26 24 24 25 27 29 30 31 32 29 25 23 23 23 23 23 23 23 23 23 24
32 32 26 20 21 25 31 32 35 34 34 24 17 13 20 27 24 20 20 22 24 23 22 21 21 21 22 23 24 24 25 26 28 30 30 31 27 25 23 22 23 22 23 23 24 25 25 24 24
31 29 19 17 21 22 33 34 36 32 34 25 19 20 19 18 17 14 17 17 18 20 21 22 25 26 25 25 24 23 24 24 23 23 24 24 23 21 22 22 23 24 24 24 24 24 25 25 26
34 28 17 18 27 23 35 35 33 30 29 26 22 23 20 16 16 15 16 15 15 17 20 23 24 26 28 26 24 23 22 20 20 21 20 19 21 22 23 23 23 24 25 26 26 27 26 26 27
32 26 17 24 31 27 36 32 31 28 25 24 23 23 21 19 15 15 16 16 17 18 20 23 25 23 24 24 23 23 23 21 20 20 20 21 23 24 24 23 25 27 29 29 28 27 26 27 28
32 24 23 23 30 29 32 35 31 29 24 25 27 25 22 22 16 14 17 18 18 19 20 23 24 24 24 24 25 25 25 23 22 22 22 23 25 25 26 28 30 31 31 30 29 28 27 29 31
33 24 22 19 29 28 27 33 28 33 24 27 29 27 26 25 20 19 18 18 20 21 22 22 25 26 25 26 27 27 26 26 26 25 25 26 26 28 30 32 33 34 32 32 30 29 30 32 34
29 25 26 23 27 29 29 24 28 35 26 28 28 26 28 25 22 22 21 19 21 23 25 24 25 26 27 28 29 29 28 28 28 28 29 29 30 31 32 34 33 32 34 35 35 33 34 36 38
28 31 24 22 23 27 32 27 34 21 27 32 33 31 29 26 23 21 16 20 24 26 26 27 28 28 29 30 31 31 30 30 32 32 31 31 32 33 34 35 34 35 37 39 40 41 42 41 39
31 34 30 23 23 26 33 36 28 23 29 35 34 34 33 32 26 22 25 24 26 28 28 29 31 31 31 32 34 34 32 33 33 33 32 33 34 34 36 37 37 39 42 45 47 44 43 43 41
34 36 32 24 28 30 35 36 25 30 31 32 35 37 36 33 32 27 27 27 29 30 30 32 33 35 35 35 36 36 34 34 35 34 34 35 36 36 38 41 42 45 45 39 40 41 40 42 44
35 34 35 30 30 36 40 36 26 31 33 36 34 34 35 32 27 29 30 31 33 33 33 35 34 37 39 39 37 37 36 37 36 36 36 37 38 40 42 43 44 42 41 38 39 40 40 46 46
35 41 40 39 32 38 41 40 36 31 35 37 37 33 33 35 31 32 37 37 37 35 36 36 36 37 40 41 39 38 39 39 39 39 40 40 40 41 41 42 40 38 38 41 44 44 45 47 49
47 47 44 41 37 39 42 41 40 39 38 37 37 36 36 35 33 36 37 39 38 36 37 35 36 37 40 42 44 43 43 44 45 43 42 42 43 44 46 44 37 38 41 42 43 45 48 50 53
51 51 49 48 45 42 43 42 43 42 40 39 39 39 38 37 37 37 38 39 37 34 35 35 37 39 43 48 53 53 49 48 46 45 45 48 49 48 47 41 36 37 38 40 42 46 50 53 54
51 55 53 52 51 48 49 49 45 45 47 46 44 43 42 40 40 40 39 40 40 37 34 38 42 44 48 50 49 54 55 53 50 49 53 54 47 47 44 38 37 36 38 42 42 45 49 51 53
52 51 52 54 57 58 51 58 49 47 49 48 49 48 43 41 43 43 41 43 43 38 40 41 43 41 46 46 41 49 54 53 53 52 35 45 48 42 41 40 34 35 38 39 41 44 47 50 55
53 54 53 58 61 61 61 61 54 50 52 51 43 42 43 44 45 45 45 42 41 44 42 42 45 49 48 48 41 53 49 52 51 47 40 38 41 43 43 39 33 38 39 40 42 45 48 50 52
54 56 57 55 58 62 59 59 55 51 51 52 48 45 48 49 48 48 48 48 44 44 42 40 38 45 43 46 47 44 46 44 40 42 44 47 43 45 46 38 35 37 38 40 43 44 47 47 46
49 50 53 54 58 61 56 59 51 54 60 58 57 51 48 46 47 46 47 48 47 47 44 43 42 44 47 46 46 46 46 45 47 47 46 48 54 48 47 39 35 35 37 40 43 43 42 39 40
49 48 48 55 56 57 56 63 58 57 60 61 59 58 55 52 48 43 46 51 52 51 49 48 47 49 45 46 47 45 51 55 54 50 54 58 53 49 41 38 34 36 38 38 39 40 37 35 36
51 56 47 48 49 53 55 58 57 59 60 59 57 55 53 54 51 47 43 43 49 54 53 52 51 48 45 45 47 47 48 62 51 52 57 48 48 42 37 36 34 37 38 36 36 36 35 34 36
52 50 49 52 53 53 56 57 58 57 54 51 51 51 56 59 59 58 50 47 43 47 52 51 52 55 53 50 48 45 50 54 51 55 44 38 42 42 37 32 32 34 36 36 36 36 37 34 36
58 58 58 57 58 59 59 60 57 57 58 58 57 55 55 55 57 55 50 48 47 47 42 43 47 52 51 46 47 49 52 60 58 50 46 46 39 36 36 31 31 32 34 38 38 38 37 36 37
58 59 61 65 64 64 62 62 60 62 63 60 61 62 58 53 53 55 52 46 48 47 47 51 46 54 50 46 47 48 65 61 52 47 36 33 35 31 27 28 30 32 34 37 39 40 37 38 40
Wind_Direction
258 260 258 257 264 265 274 276 268 269 267 275 275 270 260 255 254 252 257 250 250 257 264 274 284 296 298 291 291 292 288 283 273 271 279 286 291 298 303 304 301 301 294 289 287 284 284 283 277
255 255 258 260 263 267 271 270 267 263 267 271 271 267 267 260 255 253 254 256 258 263 270 276 281 287 289 283 284 283 277 273 269 272 276 282 290 294 299 298 296 299 293 290 286 283 282 282 280
253 252 258 257 257 268 272 261 268 270 267 266 265 263 270 270 266 266 268 261 263 267 270 275 278 279 279 279 282 270 269 271 271 273 276 278 285 289 294 293 291 293 288 288 287 287 287 285 281
253 254 260 260 262 269 267 260 261 268 268 268 271 272 271 271 272 270 264 264 270 273 273 276 271 273 273 276 270 257 260 263 262 264 269 275 280 283 288 287 285 286 288 290 290 290 288 285 283
251 250 257 260 262 265 258 257 259 261 276 284 278 277 270 268 276 270 270 278 286 282 279 277 273 272 271 266 262 254 249 253 258 260 264 270 274 283 287 281 281 283 288 290 290 290 290 286 281
250 252 256 260 259 259 258 252 257 265 270 277 279 281 275 274 277 265 277 284 293 293 289 282 277 272 268 264 260 253 248 250 254 258 262 268 274 278 278 277 280 283 283 286 288 287 285 283 281
253 252 257 262 261 255 254 252 257 263 268 269 269 286 286 279 271 272 280 291 299 300 295 284 275 266 259 258 260 262 263 262 262 262 265 268 267 273 277 284 283 281 283 284 285 285 285 284 282
254 255 262 264 254 243 251 252 254 259 263 268 271 269 278 279 273 275 280 297 305 300 293 282 274 266 262 262 264 265 267 266 270 267 265 266 271 273 276 276 278 280 282 284 284 284 284 284 282
254 258 260 260 245 232 244 249 257 264 269 274 273 271 271 269 262 263 276 293 294 288 287 281 278 277 270 264 262 267 269 268 270 269 267 265 266 269 272 275 276 278 280 282 284 285 288 288 287
256 258 258 247 244 235 249 259 259 268 277 281 276 274 271 271 264 262 264 274 278 277 278 281 276 274 271 268 264 263 262 261 261 259 258 262 266 271 271 269 270 274 279 281 280 280 281 283 285
259 260 252 251 252 251 245 265 265 274 277 287 282 275 280 281 271 254 251 260 267 268 271 274 277 277 274 272 265 263 260 256 254 254 258 263 268 265 264 267 269 270 271 270 272 277 281 284 285
270 275 261 251 254 255 253 256 268 269 275 277 283 281 281 275 265 252 252 250 254 261 261 268 272 274 273 268 266 264 257 253 253 254 259 263 260 261 266 271 274 274 274 274 276 278 282 282 284
273 268 264 252 251 262 260 260 260 261 276 272 271 270 270 268 259 247 245 249 253 252 256 256 261 267 266 262 261 260 257 256 257 259 260 261 259 264 270 274 276 278 280 284 286 288 285 284 286
272 276 271 266 265 263 267 258 259 273 265 267 271 270 268 271 268 261 252 249 258 257 257 258 259 258 259 259 258 258 257 257 259 261 265 266 264 268 274 276 275 277 281 288 290 290 290 289 288
276 274 274 275 268 260 261 264 273 262 261 266 266 266 268 268 262 260 254 251 254 260 263 265 265 259 256 256 257 258 258 258 260 265 270 269 269 272 274 272 273 278 280 281 284 289 288 292 292
274 278 281 273 266 256 254 269 263 262 260 261 264 264 264 268 271 267 262 258 255 256 259 260 265 265 260 257 257 259 258 258 261 265 269 268 267 268 270 270 274 279 283 284 292 294 297 296 292
277 284 275 264 260 258 256 270 260 262 266 266 266 267 270 273 276 284 273 259 256 259 257 258 261 264 264 263 262 262 261 261 262 264 265 266 266 268 270 275 277 280 283 286 291 292 292 289 287
280 268 267 269 252 260 268 276 276 266 266 265 263 262 264 265 269 272 275 271 264 260 259 262 262 265 267 266 264 262 261 262 263 264 265 265 266 267 265 270 278 282 287 286 288 295 298 301 299
271 270 271 269 264 259 266 270 270 268 261 261 264 264 259 260 262 262 270 270 267 266 267 267 261 259 261 265 265 264 263 264 266 267 266 263 262 263 267 272 278 282 287 293 296 298 300 302 302
271 274 270 269 269 262 263 268 269 268 268 266 264 265 265 261 260 260 267 269 267 263 256 258 258 258 262 267 269 269 266 265 265 266 262 261 259 263 266 271 280 288 291 294 298 301 301 302 302
270 271 271 271 268 264 263 262 262 266 266 266 269 268 267 268 267 261 261 264 261 261 260 257 261 266 264 268 269 269 268 262 259 255 254 254 259 263 271 271 280 288 293 296 297 298 303 304 306
272 271 268 266 265 265 258 261 260 265 265 265 265 267 271 268 266 266 264 260 262 266 268 272 270 273 261 262 273 263 261 261 260 262 266 267 262 261 267 269 276 287 295 296 298 305 309 310 307
267 263 259 259 261 262 265 266 260 267 266 265 265 264 263 262 259 262 264 264 265 264 265 267 270 268 273 265 266 260 261 265 260 256 250 249 255 260 263 270 278 290 295 298 302 307 311 309 305
264 261 261 262 261 260 263 263 263 271 269 269 266 262 259 258 258 257 258 261 266 267 270 271 266 263 264 270 268 272 274 267 269 264 266 256 257 259 263 265 277 287 290 296 301 304 307 303 302
253 256 260 262 260 265 268 269 268 268 270 268 267 266 263 259 258 257 257 260 262 267 268 265 260 260 263 263 265 267 271 276 273 269 264 265 261 256 259 261 274 285 291 295 298 299 297 300 302
262 256 256 260 263 265 265 267 270 268 268 267 265 264 267 271 264 259 257 260 263 261 261 261 260 263 260 261 262 261 266 272 271 275 281 277 256 260 260 273 289 286 287 287 290 295 296 301 295
261 262 268 268 264 265 263 264 264 266 266 264 264 266 269 270 270 267 266 258 257 260 256 255 258 257 255 252 252 254 267 275 270 278 276 273 271 259 271 288 283 280 281 288 288 292 296 296 291
257 261 257 258 259 259 265 268 269 266 265 262 262 264 263 263 266 267 267 268 264 258 260 258 254 250 247 244 248 261 265 259 271 264 263 259 268 284 287 287 284 280 282 285 290 296 299 293 290
255 254 255 257 261 263 266 268 268 266 266 265 263 265 264 266 266 266 267 266 262 251 254 258 266 262 250 251 257 265 258 260 256 254 260 268 284 291 291 281 279 284 287 289 292 297 295 288 292
258 256 258 256 259 262 264 264 265 265 264 263 274 266 264 267 269 270 265 265 267 259 264 272 269 255 244 244 256 257 254 247 253 273 280 282 292 289 278 279 284 284 288 291 294 294 289 289 291